Starlink 30889

operational
NORAD ID: 58368 Int'l Des: 2023-177 Owner: SPXS Country: US Constellation: starlink
LEOCIRCULAR

About Starlink 30889

Description loading...

Live Position

Loading 3D Globe...

Upcoming Passes

Altitude History

Altitude vs Time

uPlot chart will show altitude changes over time

Two-Line Element Set

1 58368U 23177T 26012.83904217 -.00000219 00000-0 -11443-5 0 9997
2 58368 43.0027 295.1307 0000669 255.0534 105.0234 15.02531390119814
Epoch: Jan 12, 2026 • Age: 9 hours

Current Status

Altitude 564.5 km
Velocity 7.58 km/s
Sub-Earth Point -23.43°S, 69.46°E
Launch Date Nov 18, 2023
Age 2.1 years
Type internet

Technical Details

Classification Payload
Mass 730.00 kg
Dry Mass 700.00 kg
Total Mass 730.00 kg
Length 0.30 m
Diameter 4.10 m
Span 29.00 m
Shape Box + pan
Manufacturer SPXS
Bus Type Starlink V2M
Phase Status In Orbit
Owner/State SPXS/US

Large Constellations

Loading constellations...